TimeCST,TemperatureF,Dew PointF,Humidity,Sea Level PressureIn,VisibilityMPH,Wind Direction,Wind SpeedMPH,Gust SpeedMPH,PrecipitationIn,Events,Conditions,WindDirDegrees,DateUTC
12:15 AM,-16.6,-23.8,70,30.33,10.0,WNW,19.6,-,N/A,,Clear,300,2013-01-21 06:15:00
12:35 AM,-16.6,-23.8,70,30.33,10.0,WNW,19.6,-,N/A,,Partly Cloudy,300,2013-01-21 06:35:00
12:55 AM,-18.4,-23.8,76,30.33,10.0,WNW,18.4,-,N/A,,Partly Cloudy,300,2013-01-21 06:55:00
1:15 AM,-18.4,-23.8,76,30.33,10.0,WNW,17.3,-,N/A,,Clear,300,2013-01-21 07:15:00
1:35 AM,-18.4,-25.6,70,30.33,10.0,WNW,15.0,-,N/A,,Clear,300,2013-01-21 07:35:00
1:55 AM,-18.4,-25.6,70,30.33,10.0,WNW,13.8,-,N/A,,Unknown,300,2013-01-21 07:55:00
2:15 AM,-18.4,-25.6,70,30.32,10.0,WNW,11.5,-,N/A,,Clear,290,2013-01-21 08:15:00
2:35 AM,-20.2,-25.6,76,30.32,10.0,WNW,11.5,-,N/A,,Clear,290,2013-01-21 08:35:00
2:55 AM,-22.0,-27.4,76,30.33,10.0,WNW,10.4,-,N/A,,Clear,290,2013-01-21 08:55:00
3:15 AM,-22.0,-27.4,76,30.33,10.0,WNW,10.4,-,N/A,,Clear,290,2013-01-21 09:15:00
3:35 AM,-22.0,-27.4,76,30.32,10.0,WNW,9.2,-,N/A,,Clear,290,2013-01-21 09:35:00
3:55 AM,-22.0,-29.2,69,30.32,10.0,West,6.9,-,N/A,,Clear,280,2013-01-21 09:55:00
4:15 AM,-22.0,-29.2,69,30.31,10.0,WNW,8.1,-,N/A,,Clear,290,2013-01-21 10:15:00
4:55 AM,-22.0,-29.2,69,30.29,10.0,West,12.7,-,N/A,,Clear,280,2013-01-21 10:55:00
5:15 AM,-23.8,-29.2,76,30.29,10.0,West,11.5,-,N/A,,Unknown,280,2013-01-21 11:15:00
5:35 AM,-23.8,-29.2,76,30.29,10.0,West,10.4,-,N/A,,Clear,280,2013-01-21 11:35:00
5:55 AM,-25.6,-31.0,76,30.29,10.0,West,12.7,-,N/A,,Partly Cloudy,280,2013-01-21 11:55:00
6:15 AM,-23.8,-29.2,76,30.28,10.0,West,11.5,-,N/A,,Partly Cloudy,280,2013-01-21 12:15:00
6:35 AM,-22.0,-29.2,69,30.28,10.0,WNW,12.7,-,N/A,,Clear,290,2013-01-21 12:35:00
6:55 AM,-22.0,-29.2,69,30.29,10.0,WNW,10.4,-,N/A,,Unknown,290,2013-01-21 12:55:00
7:15 AM,-22.0,-29.2,69,30.28,10.0,West,11.5,-,N/A,,Unknown,280,2013-01-21 13:15:00
7:35 AM,-22.0,-29.2,69,30.28,10.0,West,10.4,-,N/A,,Clear,280,2013-01-21 13:35:00
7:55 AM,-23.8,-29.2,76,30.27,10.0,West,12.7,-,N/A,,Clear,280,2013-01-21 13:55:00
8:15 AM,-22.0,-29.2,69,30.27,10.0,West,16.1,-,N/A,,Clear,280,2013-01-21 14:15:00
8:35 AM,-22.0,-27.4,76,30.26,10.0,West,16.1,-,N/A,,Scattered Clouds,280,2013-01-21 14:35:00
8:55 AM,-22.0,-27.4,76,30.27,10.0,WNW,17.3,-,N/A,,Clear,290,2013-01-21 14:55:00
9:15 AM,-22.0,-27.4,76,30.27,10.0,WNW,15.0,-,N/A,,Unknown,290,2013-01-21 15:15:00
9:35 AM,-20.2,-27.4,69,30.27,10.0,West,15.0,-,N/A,,Partly Cloudy,280,2013-01-21 15:35:00
9:55 AM,-18.4,-25.6,70,30.27,10.0,West,16.1,-,N/A,,Clear,280,2013-01-21 15:55:00
10:15 AM,-18.4,-23.8,76,30.28,10.0,WNW,15.0,-,N/A,,Clear,290,2013-01-21 16:15:00
10:35 AM,-16.6,-22.0,76,30.27,10.0,WNW,17.3,-,N/A,,Clear,290,2013-01-21 16:35:00
10:55 AM,-14.8,-22.0,70,30.28,10.0,WNW,13.8,-,N/A,,Clear,290,2013-01-21 16:55:00
11:15 AM,-13.0,-20.2,70,30.27,10.0,WNW,20.7,-,N/A,,Clear,300,2013-01-21 17:15:00
11:35 AM,-11.2,-18.4,70,30.27,10.0,WNW,21.9,27.6,N/A,,Clear,300,2013-01-21 17:35:00
11:55 AM,-11.2,-18.4,70,30.26,10.0,WNW,19.6,26.5,N/A,,Clear,300,2013-01-21 17:55:00
12:15 PM,-9.4,-18.4,65,30.25,10.0,WNW,21.9,-,N/A,,Clear,290,2013-01-21 18:15:00
12:35 PM,-9.4,-16.6,71,30.24,10.0,WNW,19.6,-,N/A,,Clear,300,2013-01-21 18:35:00
12:55 PM,-7.6,-16.6,65,30.23,10.0,WNW,18.4,-,N/A,,Clear,300,2013-01-21 18:55:00
1:15 PM,-7.6,-16.6,65,30.23,10.0,WNW,20.7,-,N/A,,Clear,300,2013-01-21 19:15:00
1:35 PM,-7.6,-16.6,65,30.23,10.0,NW,20.7,-,N/A,,Clear,310,2013-01-21 19:35:00
1:55 PM,-5.8,-14.8,65,30.23,10.0,NW,19.6,-,N/A,,Clear,310,2013-01-21 19:55:00
2:15 PM,-5.8,-14.8,65,30.22,10.0,NW,21.9,-,N/A,,Clear,310,2013-01-21 20:15:00
2:35 PM,-5.8,-14.8,65,30.23,10.0,NW,20.7,27.6,N/A,,Clear,310,2013-01-21 20:35:00
2:55 PM,-5.8,-13.0,71,30.23,10.0,NW,19.6,-,N/A,,Clear,310,2013-01-21 20:55:00
3:15 PM,-5.8,-14.8,65,30.23,10.0,NW,19.6,-,N/A,,Clear,310,2013-01-21 21:15:00
3:35 PM,-5.8,-14.8,65,30.23,10.0,NW,19.6,-,N/A,,Clear,310,2013-01-21 21:35:00
3:55 PM,-5.8,-14.8,65,30.23,10.0,NW,20.7,-,N/A,,Clear,310,2013-01-21 21:55:00
4:15 PM,-5.8,-14.8,65,30.23,10.0,NW,17.3,-,N/A,,Clear,310,2013-01-21 22:15:00
4:35 PM,-7.6,-14.8,71,30.23,10.0,NW,17.3,-,N/A,,Clear,310,2013-01-21 22:35:00
4:55 PM,-7.6,-14.8,71,30.24,10.0,NW,12.7,-,N/A,,Clear,310,2013-01-21 22:55:00
5:15 PM,-9.4,-16.6,71,30.23,10.0,WNW,12.7,-,N/A,,Clear,300,2013-01-21 23:15:00
5:35 PM,-9.4,-16.6,71,30.23,10.0,NW,13.8,-,N/A,,Clear,310,2013-01-21 23:35:00
5:55 PM,-9.4,-16.6,71,30.23,10.0,WNW,10.4,-,N/A,,Clear,300,2013-01-21 23:55:00
6:15 PM,-11.2,-16.6,77,30.23,10.0,NW,11.5,-,N/A,,Clear,310,2013-01-22 00:15:00
6:35 PM,-11.2,-16.6,77,30.23,10.0,WNW,11.5,-,N/A,,Clear,300,2013-01-22 00:35:00
6:55 PM,-11.2,-16.6,77,30.23,10.0,NW,9.2,-,N/A,,Clear,310,2013-01-22 00:55:00
7:15 PM,-13.0,-18.4,77,30.23,10.0,NW,5.8,-,N/A,,Clear,310,2013-01-22 01:15:00
7:35 PM,-11.2,-18.4,70,30.23,10.0,WNW,6.9,-,N/A,,Clear,300,2013-01-22 01:35:00
7:55 PM,-11.2,-16.6,77,30.23,10.0,WNW,11.5,-,N/A,,Clear,300,2013-01-22 01:55:00
8:15 PM,-13.0,-18.4,77,30.23,10.0,WNW,9.2,-,N/A,,Clear,290,2013-01-22 02:15:00
8:35 PM,-13.0,-18.4,77,30.23,10.0,WNW,10.4,-,N/A,,Clear,290,2013-01-22 02:35:00
8:55 PM,-11.2,-16.6,77,30.22,10.0,WNW,10.4,-,N/A,,Clear,290,2013-01-22 02:55:00
9:15 PM,-11.2,-16.6,77,30.23,10.0,WNW,9.2,-,N/A,,Clear,300,2013-01-22 03:15:00
9:35 PM,-11.2,-16.6,77,30.22,10.0,WNW,8.1,-,N/A,,Clear,290,2013-01-22 03:35:00
9:55 PM,-11.2,-18.4,70,30.23,10.0,West,6.9,-,N/A,,Clear,280,2013-01-22 03:55:00
10:15 PM,-9999,-9999,N/A,30.22,10.0,West,6.9,-,N/A,,Clear,280,2013-01-22 04:15:00
10:35 PM,-11.2,-18.4,70,30.23,10.0,NW,4.6,-,N/A,,Clear,310,2013-01-22 04:35:00
10:55 PM,-13.0,-18.4,77,30.23,10.0,WNW,6.9,-,N/A,,Clear,290,2013-01-22 04:55:00
11:15 PM,-13.0,-18.4,77,30.23,10.0,WNW,5.8,-,N/A,,Clear,300,2013-01-22 05:15:00
11:35 PM,-13.0,-18.4,77,30.23,10.0,WNW,5.8,-,N/A,,Clear,300,2013-01-22 05:35:00
11:55 PM,-13.0,-18.4,77,30.23,10.0,WNW,4.6,-,N/A,,Clear,290,2013-01-22 05:55:00